Location: Sebastopol
(38.4021°N, 122.8239°W)
Time: 15:42:33
(UTC+00:00)

Nadezhda 4 Rocket - Pass Details

Date: 29 October 2020
Orbit: 951 x 991 km, 82.9° (Epoch: 30 November)

Event Time Altitude Azimuth Distance (km) Brightness Sun altitude
Rises 12:01:35 0° 179° (S) 3,607 6.9 -30.6°
Reaches altitude 10° 12:04:04 10° 177° (S) 2,666 6.2 -30.1°
Maximum altitude 12:10:07 72° 94° (E) 1,000 4.1 -28.9°
Drops below altitude 10° 12:16:14 10° 11° (N) 2,694 6.5 -27.7°
Sets 12:18:45 0° 10° (N) 3,648 7.2 -27.2°
